Location: River House Observatory
(37.8577°N, 76.3548°W)
Time: 05:46:20
(UTC-04:00)

NOSS 3-1 (C) - Visible Passes

Search period start: 25 August 2016 00:00
Search period end: 04 September 2016 00:00
Orbit: 847 x 1362 km, 63.4° (Epoch: 31 July)

Date Brightness Start Highest point End Pass type
(mag) Time Alt. Az. Time Alt. Az. Time Alt. Az.
31 Aug 5.7 05:49:43 10° SSE 05:54:01 22° ESE 05:58:34 10° ENE visible
01 Sep 6.1 05:07:35 10° ESE 05:09:16 11° ESE 05:10:59 10° E visible
03 Sep 5.1 05:23:52 10° S 05:28:49 30° ESE 05:34:07 10° NE visible
